�������l�o���
Date,Time,MP-1(��Sv/h),MP-2(��Sv/h),MP-3(��Sv/h),MP-4(��Sv/h),MP-5(��Sv/h),MP-6(��Sv/h),MP-7(��Sv/h),MP-8(��Sv/h),����,����(m/s),���J
2018/06/25,00:00,0.893,1.255,0.873,1.568,1.097,0.481,0.833,0.793,���k��,0.6,��
2018/06/25,00:10,0.892,1.260,0.873,1.571,1.095,0.482,0.833,0.792,�k��,3.4,��
2018/06/25,00:20,0.892,1.256,0.873,1.568,1.096,0.483,0.834,0.792,���k��,4.5,��
2018/06/25,00:30,0.894,1.256,0.873,1.570,1.096,0.482,0.833,0.794,���k��,7.3,��
2018/06/25,00:40,0.894,1.257,0.872,1.570,1.097,0.481,0.833,0.792,���k��,7.5,��
2018/06/25,00:50,0.892,1.259,0.872,1.571,1.098,0.482,0.834,0.792,���k��,4.9,��
2018/06/25,01:00,0.892,1.257,0.874,1.571,1.098,0.482,0.833,0.793,��,3.8,��
2018/06/25,01:10,0.895,1.254,0.872,1.572,1.094,0.483,0.834,0.793,��,4.2,��
2018/06/25,01:20,0.894,1.258,0.871,1.573,1.097,0.481,0.835,0.794,��,4.4,��
2018/06/25,01:30,0.894,1.257,0.873,1.571,1.098,0.482,0.834,0.793,��,3.6,��
2018/06/25,01:40,0.892,1.259,0.873,1.571,1.097,0.482,0.836,0.793,���k��,3.9,��
2018/06/25,01:50,0.894,1.258,0.874,1.572,1.096,0.482,0.834,0.791,���k��,6.7,��
2018/06/25,02:00,0.892,1.259,0.873,1.573,1.097,0.480,0.834,0.793,��,8.7,��
2018/06/25,02:10,0.893,1.258,0.875,1.574,1.099,0.482,0.835,0.792,��,9.3,��
2018/06/25,02:20,0.894,1.258,0.874,1.574,1.098,0.483,0.834,0.794,���쐼,7.6,��
2018/06/25,02:30,0.895,1.256,0.875,1.572,1.096,0.481,0.835,0.794,���쐼,7.0,��
2018/06/25,02:40,0.893,1.259,0.874,1.571,1.098,0.482,0.835,0.794,���쐼,6.8,��
2018/06/25,02:50,0.893,1.256,0.875,1.573,1.097,0.481,0.834,0.793,���쐼,6.4,��
2018/06/25,03:00,0.891,1.261,0.872,1.574,1.095,0.482,0.833,0.794,���쐼,5.5,��
2018/06/25,03:10,0.891,1.258,0.873,1.575,1.097,0.481,0.837,0.794,�쐼,5.9,��
2018/06/25,03:20,0.891,1.259,0.874,1.570,1.097,0.480,0.835,0.793,���쐼,7.2,��
2018/06/25,03:30,0.891,1.260,0.874,1.571,1.098,0.483,0.834,0.793,���쐼,7.0,��
2018/06/25,03:40,0.892,1.256,0.874,1.572,1.099,0.482,0.834,0.792,�쐼,8.2,��
2018/06/25,03:50,0.891,1.258,0.874,1.575,1.098,0.482,0.834,0.793,�쐼,7.8,��
2018/06/25,04:00,0.893,1.259,0.875,1.572,1.098,0.483,0.836,0.793,���쐼,8.6,��
2018/06/25,04:10,0.890,1.259,0.875,1.574,1.097,0.482,0.835,0.793,���쐼,7.5,��
2018/06/25,04:20,0.887,1.254,0.873,1.573,1.099,0.483,0.836,0.794,��,8.4,��
2018/06/25,04:30,0.891,1.254,0.873,1.573,1.099,0.483,0.835,0.793,���쐼,8.4,��
2018/06/25,04:40,0.890,1.258,0.875,1.572,1.097,0.483,0.835,0.794,��,7.3,��
2018/06/25,04:50,0.890,1.255,0.873,1.573,1.098,0.482,0.835,0.794,���쐼,7.4,��
2018/06/25,05:00,0.891,1.255,0.875,1.574,1.100,0.483,0.835,0.794,���쐼,6.8,��
2018/06/25,05:10,0.891,1.259,0.874,1.575,1.099,0.484,0.833,0.794,���쐼,7.8,��
2018/06/25,05:20,0.892,1.257,0.872,1.574,1.099,0.483,0.834,0.793,���쐼,8.5,��
2018/06/25,05:30,0.893,1.259,0.875,1.573,1.099,0.484,0.835,0.794,���쐼,8.2,��
2018/06/25,05:40,0.891,1.259,0.873,1.574,1.099,0.480,0.835,0.793,���쐼,8.0,��
2018/06/25,05:50,0.892,1.256,0.872,1.573,1.100,0.483,0.832,0.793,��,7.1,��
2018/06/25,06:00,0.894,1.258,0.872,1.572,1.099,0.483,0.834,0.793,���쐼,8.0,��
2018/06/25,06:10,0.893,1.255,0.872,1.574,1.101,0.482,0.835,0.794,���쐼,8.2,��
2018/06/25,06:20,0.895,1.255,0.871,1.572,1.099,0.482,0.834,0.793,���쐼,8.3,��
2018/06/25,06:30,0.894,1.252,0.871,1.574,1.098,0.482,0.835,0.796,���쐼,7.8,��
2018/06/25,06:40,0.894,1.253,0.874,1.572,1.096,0.483,0.835,0.794,��,8.0,��
2018/06/25,06:50,0.893,1.255,0.873,1.572,1.096,0.481,0.835,0.795,��,7.4,��
2018/06/25,07:00,0.892,1.255,0.872,1.575,1.099,0.482,0.833,0.795,��,5.4,��
2018/06/25,07:10,0.893,1.256,0.873,1.571,1.102,0.481,0.835,0.794,��,4.0,��
2018/06/25,07:20,0.895,1.256,0.873,1.573,1.098,0.483,0.835,0.792,���쐼,4.2,��
2018/06/25,07:30,0.894,1.255,0.874,1.573,1.100,0.482,0.834,0.793,��,3.9,��
2018/06/25,07:40,0.892,1.256,0.872,1.572,1.099,0.482,0.832,0.794,��,3.4,��
2018/06/25,07:50,0.891,1.256,0.871,1.573,1.097,0.483,0.832,0.793,���k��,3.9,��
2018/06/25,08:00,0.890,1.256,0.874,1.575,1.100,0.482,0.835,0.793,�k��,3.3,��
2018/06/25,08:10,0.891,1.254,0.873,1.574,1.102,0.484,0.833,0.791,�k��,3.2,��
2018/06/25,08:20,0.890,1.259,0.874,1.577,1.100,0.484,0.834,0.791,�k��,2.0,��
2018/06/25,08:30,0.892,1.257,0.876,1.574,1.101,0.483,0.832,0.790,�k��,1.9,��
2018/06/25,08:40,0.893,1.256,0.871,1.577,1.101,0.483,0.833,0.793,�k��,2.8,��
2018/06/25,08:50,0.890,1.258,0.873,1.575,1.099,0.483,0.834,0.792,���k��,3.6,��
2018/06/25,09:00,0.889,1.259,0.872,1.576,1.100,0.483,0.833,0.791,���k��,2.8,��
2018/06/25,09:10,0.889,1.257,0.875,1.576,1.102,0.481,0.833,0.790,�k��,3.9,��
2018/06/25,09:20,0.889,1.258,0.872,1.575,1.100,0.481,0.833,0.793,�k��,4.7,��
2018/06/25,09:30,0.888,1.259,0.872,1.576,1.101,0.480,0.833,0.791,�k��,5.1,��
2018/06/25,09:40,0.890,1.259,0.872,1.577,1.102,0.481,0.833,0.790,�k��,4.4,��
2018/06/25,09:50,0.890,1.259,0.872,1.579,1.101,0.481,0.831,0.792,�k��,4.9,��
2018/06/25,10:00,0.891,1.263,0.870,1.575,1.101,0.480,0.832,0.791,���k��,4.1,��
2018/06/25,10:10,0.889,1.262,0.872,1.577,1.103,0.480,0.833,0.790,���k��,5.7,��
2018/06/25,10:20,0.891,1.261,0.871,1.578,1.101,0.478,0.831,0.791,���k��,4.4,��
2018/06/25,10:30,0.890,1.261,0.871,1.579,1.101,0.479,0.832,0.791,��,4.5,��
2018/06/25,10:40,0.890,1.263,0.870,1.576,1.104,0.480,0.832,0.790,���k��,3.6,��
2018/06/25,10:50,0.890,1.262,0.872,1.578,1.101,0.479,0.833,0.790,���k��,4.5,��
2018/06/25,11:00,0.892,1.263,0.871,1.579,1.104,0.482,0.832,0.790,���k��,4.3,��
2018/06/25,11:10,0.891,1.261,0.874,1.575,1.104,0.480,0.833,0.792,���k��,3.6,��
2018/06/25,11:20,0.891,1.264,0.872,1.575,1.103,0.479,0.833,0.790,�k��,3.1,��
2018/06/25,11:30,0.893,1.261,0.873,1.576,1.104,0.479,0.833,0.791,�k��,3.8,��
2018/06/25,11:40,0.891,1.261,0.873,1.576,1.107,0.479,0.833,0.792,���k��,4.3,��
2018/06/25,11:50,0.891,1.265,0.872,1.576,1.104,0.480,0.832,0.790,���k��,3.8,��
2018/06/25,12:00,0.890,1.264,0.873,1.578,1.105,0.480,0.834,0.792,���k��,3.2,��
2018/06/25,12:10,0.889,1.262,0.873,1.576,1.105,0.481,0.833,0.792,��,3.1,��
2018/06/25,12:20,0.892,1.263,0.873,1.577,1.105,0.481,0.833,0.791,��,2.6,��
2018/06/25,12:30,0.890,1.264,0.873,1.576,1.108,0.481,0.833,0.792,���k��,2.8,��
2018/06/25,12:40,0.893,1.264,0.874,1.577,1.106,0.479,0.833,0.790,��,2.3,��
2018/06/25,12:50,0.892,1.267,0.873,1.579,1.104,0.481,0.834,0.792,���k��,2.6,��
2018/06/25,13:00,0.892,1.266,0.875,1.580,1.106,0.479,0.834,0.792,���k��,3.6,��
2018/06/25,13:10,0.892,1.265,0.874,1.578,1.107,0.483,0.833,0.792,���k��,3.1,��
2018/06/25,13:20,0.894,1.266,0.873,1.578,1.108,0.481,0.834,0.793,�k��,3.0,��
2018/06/25,13:30,0.895,1.265,0.875,1.579,1.109,0.481,0.830,0.795,�k��,2.5,��
2018/06/25,13:40,0.898,1.264,0.874,1.581,1.109,0.479,0.834,0.793,�k��,2.3,��
2018/06/25,13:50,0.898,1.266,0.874,1.579,1.106,0.481,0.834,0.792,�k��,1.7,��
2018/06/25,14:00,0.898,1.261,0.874,1.577,1.107,0.481,0.833,0.792,�k�k��,0.9,��
2018/06/25,14:10,0.900,1.267,0.876,1.581,1.109,0.479,0.833,0.793,�k�k��,1.5,��
2018/06/25,14:20,0.899,1.265,0.875,1.582,1.109,0.481,0.832,0.792,���k��,2.2,��
2018/06/25,14:30,0.897,1.268,0.875,1.580,1.110,0.481,0.833,0.791,�k��,2.3,��
2018/06/25,14:40,0.897,1.266,0.875,1.579,1.108,0.481,0.834,0.792,�k��,1.5,��
2018/06/25,14:50,0.895,1.264,0.876,1.579,1.108,0.480,0.833,0.792,���k��,2.3,��
2018/06/25,15:00,0.897,1.269,0.878,1.580,1.109,0.480,0.835,0.792,���k��,2.3,��
2018/06/25,15:10,0.897,1.267,0.875,1.581,1.107,0.480,0.835,0.792,���k��,2.0,��
2018/06/25,15:20,0.898,1.269,0.876,1.580,1.110,0.481,0.835,0.792,�k��,2.0,��
2018/06/25,15:30,0.899,1.267,0.874,1.580,1.111,0.482,0.833,0.793,�k�k��,1.5,��
2018/06/25,15:40,0.897,1.268,0.877,1.580,1.110,0.480,0.834,0.791,�k,1.7,��
2018/06/25,15:50,0.897,1.267,0.877,1.579,1.112,0.480,0.836,0.792,�k�k��,2.0,��
2018/06/25,16:00,0.900,1.268,0.876,1.578,1.109,0.481,0.835,0.792,�k��,3.2,��
2018/06/25,16:10,0.902,1.269,0.877,1.580,1.112,0.480,0.835,0.791,�k��,3.5,��
2018/06/25,16:20,0.899,1.268,0.877,1.581,1.113,0.480,0.835,0.792,�k��,3.5,��
2018/06/25,16:30,0.900,1.270,0.878,1.580,1.112,0.480,0.834,0.792,�k��,3.0,��
2018/06/25,16:40,0.900,1.268,0.879,1.583,1.110,0.481,0.835,0.793,��,2.5,��
2018/06/25,16:50,0.898,1.272,0.876,1.580,1.109,0.482,0.835,0.791,��,2.2,��
2018/06/25,17:00,0.898,1.271,0.877,1.578,1.111,0.480,0.835,0.793,���쓌,1.7,��
2018/06/25,17:10,0.898,1.268,0.877,1.581,1.114,0.479,0.833,0.793,���쓌,1.7,��
2018/06/25,17:20,0.897,1.269,0.878,1.584,1.113,0.480,0.834,0.793,�쓌,2.0,��
2018/06/25,17:30,0.896,1.271,0.876,1.586,1.113,0.482,0.834,0.795,�쓌,1.5,��
2018/06/25,17:40,0.897,1.269,0.877,1.584,1.113,0.480,0.834,0.794,��쓌,2.3,��
2018/06/25,17:50,0.899,1.271,0.877,1.583,1.113,0.483,0.835,0.795,��쓌,1.4,��
2018/06/25,18:00,0.899,1.270,0.879,1.586,1.112,0.482,0.834,0.793,��,2.3,��
2018/06/25,18:10,0.901,1.270,0.878,1.584,1.114,0.482,0.833,0.795,��쐼,2.0,��
2018/06/25,18:20,0.901,1.270,0.878,1.584,1.111,0.482,0.834,0.795,��,1.5,��
2018/06/25,18:30,0.899,1.267,0.877,1.583,1.112,0.483,0.834,0.792,��쐼,2.0,��
2018/06/25,18:40,0.900,1.270,0.879,1.582,1.112,0.483,0.833,0.794,��쐼,2.8,��
2018/06/25,18:50,0.900,1.272,0.879,1.580,1.112,0.482,0.832,0.792,��쐼,3.6,��
2018/06/25,19:00,0.900,1.272,0.880,1.582,1.115,0.482,0.834,0.794,��,3.9,��
2018/06/25,19:10,0.900,1.271,0.881,1.583,1.114,0.481,0.834,0.794,��,3.4,��
2018/06/25,19:20,0.901,1.270,0.881,1.582,1.113,0.481,0.835,0.793,��,3.8,��
2018/06/25,19:30,0.899,1.269,0.879,1.585,1.110,0.480,0.834,0.794,��,4.2,��
2018/06/25,19:40,0.897,1.271,0.879,1.585,1.110,0.482,0.834,0.796,��,5.0,��
2018/06/25,19:50,0.900,1.271,0.879,1.585,1.112,0.481,0.833,0.793,��,4.0,��
2018/06/25,20:00,0.900,1.272,0.879,1.586,1.112,0.482,0.837,0.793,��,3.8,��
2018/06/25,20:10,0.899,1.272,0.880,1.586,1.113,0.481,0.834,0.792,��,3.2,��
2018/06/25,20:20,0.897,1.270,0.881,1.586,1.111,0.481,0.835,0.795,��,2.9,��
2018/06/25,20:30,0.900,1.270,0.881,1.585,1.112,0.480,0.835,0.794,��,2.6,��
2018/06/25,20:40,0.899,1.271,0.879,1.584,1.113,0.481,0.835,0.794,��,2.0,��
2018/06/25,20:50,0.901,1.269,0.881,1.584,1.113,0.483,0.834,0.793,��쐼,2.9,��
2018/06/25,21:00,0.900,1.270,0.880,1.584,1.111,0.481,0.833,0.794,��쐼,2.3,��
2018/06/25,21:10,0.899,1.270,0.878,1.585,1.110,0.482,0.834,0.794,��쐼,2.0,��
2018/06/25,21:20,0.898,1.270,0.880,1.584,1.112,0.482,0.833,0.792,��쐼,2.0,��
2018/06/25,21:30,0.898,1.270,0.881,1.587,1.113,0.480,0.834,0.794,��쐼,2.0,��
2018/06/25,21:40,0.899,1.269,0.878,1.585,1.111,0.481,0.834,0.793,��쐼,1.2,��
2018/06/25,21:50,0.898,1.269,0.878,1.583,1.111,0.480,0.836,0.793,��,1.2,��
2018/06/25,22:00,0.900,1.271,0.882,1.585,1.109,0.483,0.835,0.794,��쐼,1.5,��
2018/06/25,22:10,0.897,1.267,0.879,1.585,1.112,0.481,0.836,0.794,��쐼,2.5,��
2018/06/25,22:20,0.899,1.268,0.878,1.585,1.110,0.481,0.835,0.795,�쐼,2.3,��
2018/06/25,22:30,0.897,1.268,0.880,1.586,1.113,0.482,0.836,0.795,��쐼,2.9,��
2018/06/25,22:40,0.899,1.270,0.879,1.587,1.112,0.482,0.834,0.797,��쐼,3.0,��
2018/06/25,22:50,0.899,1.267,0.879,1.585,1.111,0.481,0.836,0.792,��쐼,3.1,��
2018/06/25,23:00,0.900,1.270,0.878,1.586,1.112,0.479,0.836,0.795,��쐼,3.2,��
2018/06/25,23:10,0.899,1.270,0.880,1.585,1.109,0.481,0.835,0.795,��쐼,2.6,��
2018/06/25,23:20,0.898,1.267,0.879,1.586,1.110,0.482,0.835,0.795,��쐼,3.1,��
2018/06/25,23:30,0.898,1.269,0.879,1.586,1.112,0.480,0.835,0.795,��쐼,2.9,��
2018/06/25,23:40,0.897,1.269,0.878,1.586,1.110,0.481,0.835,0.795,��쐼,2.8,��
2018/06/25,23:50,0.896,1.269,0.878,1.587,1.111,0.481,0.837,0.795,��쐼,2.6,��
